Time,TemperatureF,DewpointF,PressureIn,WindDirection,WindDirectionDegrees,WindSpeedMPH,WindSpeedGustMPH,Humidity,HourlyPrecipIn,Conditions,Clouds,dailyrainin,SolarRadiationWatts/m^2,SoftwareType,DateUTC
2013-05-07 00:02:00,61.5,51.3,29.77,SW,225,3.5,3.5,69,0.00,RA,OVC,0.00,0.0,WeatherDisplay:10.37,2013-05-07 07:02:00,
2013-05-07 00:07:00,61.3,50.7,29.77,SSE,158,2.3,2.3,68,0.00,RA,OVC,0.00,0.0,WeatherDisplay:10.37,2013-05-07 07:07:00,
2013-05-07 00:12:00,61.3,50.7,29.77,WSW,248,1.2,1.8,68,0.00,OVC,,0.00,0.0,WeatherDisplay:10.37,2013-05-07 07:12:00,
2013-05-07 00:17:00,61.3,50.3,29.77,WSW,248,1.2,1.2,67,0.00,OVC,,0.00,0.0,WeatherDisplay:10.37,2013-05-07 07:17:00,
2013-05-07 00:22:00,61.3,50.3,29.77,SW,225,1.2,1.2,67,0.00,OVC,,0.00,0.0,WeatherDisplay:10.37,2013-05-07 07:22:00,
2013-05-07 00:27:00,61.3,50.3,29.78,NE,45,0.0,0.3,67,0.00,OVC,,0.00,0.0,WeatherDisplay:10.37,2013-05-07 07:27:00,
2013-05-07 00:32:00,61.2,50.1,29.78,NE,45,1.3,1.3,67,0.00,OVC,,0.00,0.0,WeatherDisplay:10.37,2013-05-07 07:32:00,
2013-05-07 00:37:00,61.0,49.9,29.78,NE,45,1.2,1.2,67,0.00,OVC,,0.00,0.0,WeatherDisplay:10.37,2013-05-07 07:37:00,
2013-05-07 00:42:00,61.0,50.3,29.78,East,90,0.0,0.6,68,0.00,OVC,,0.00,0.0,WeatherDisplay:10.37,2013-05-07 07:42:00,
2013-05-07 00:47:00,61.0,50.3,29.77,East,90,0.0,0.1,68,0.00,OVC,,0.00,0.0,WeatherDisplay:10.37,2013-05-07 07:47:00,
2013-05-07 00:52:00,61.0,50.3,29.77,ENE,68,0.0,0.0,68,0.00,OVC,,0.00,0.0,WeatherDisplay:10.37,2013-05-07 07:52:00,
2013-05-07 00:57:00,60.8,50.2,29.77,SE,135,0.0,0.0,68,0.00,OVC,,0.00,0.0,WeatherDisplay:10.37,2013-05-07 07:57:00,
2013-05-07 01:02:00,61.0,50.7,29.77,ESE,112,0.0,0.0,69,0.00,OVC,,0.00,0.0,WeatherDisplay:10.37,2013-05-07 08:02:00,
2013-05-07 01:07:00,60.8,50.6,29.78,NE,45,0.0,0.0,69,0.00,OVC,,0.00,0.0,WeatherDisplay:10.37,2013-05-07 08:07:00,
2013-05-07 01:12:00,60.8,50.6,29.78,East,90,0.0,0.0,69,0.00,OVC,,0.00,0.0,WeatherDisplay:10.37,2013-05-07 08:12:00,
2013-05-07 01:17:00,60.6,50.8,29.78,ESE,112,0.0,0.0,70,0.00,OVC,,0.00,0.0,WeatherDisplay:10.37,2013-05-07 08:17:00,
2013-05-07 01:22:00,60.8,50.6,29.78,ESE,112,0.0,0.0,69,0.00,OVC,,0.00,0.0,WeatherDisplay:10.37,2013-05-07 08:22:00,
2013-05-07 01:27:00,60.8,50.6,29.78,South,180,0.0,0.0,69,0.00,OVC,,0.00,0.0,WeatherDisplay:10.37,2013-05-07 08:27:00,
2013-05-07 01:32:00,60.6,50.8,29.78,ENE,68,0.0,0.0,70,0.00,OVC,,0.00,0.0,WeatherDisplay:10.37,2013-05-07 08:32:00,
2013-05-07 01:37:00,60.6,50.8,29.78,ENE,68,0.0,0.0,70,0.00,OVC,,0.00,0.0,WeatherDisplay:10.37,2013-05-07 08:37:00,
2013-05-07 01:42:00,60.6,50.8,29.78,ESE,112,0.0,0.0,70,0.00,OVC,,0.00,0.0,WeatherDisplay:10.37,2013-05-07 08:42:00,
2013-05-07 01:47:00,60.6,50.8,29.78,NNE,22,0.0,0.0,70,0.00,OVC,,0.00,0.0,WeatherDisplay:10.37,2013-05-07 08:47:00,
2013-05-07 01:52:00,60.4,50.6,29.78,ENE,68,0.0,0.0,70,0.00,OVC,,0.00,0.0,WeatherDisplay:10.37,2013-05-07 08:52:00,
2013-05-07 01:57:00,60.4,51.0,29.78,SE,135,0.0,0.0,71,0.00,OVC,,0.00,0.0,WeatherDisplay:10.37,2013-05-07 08:57:00,
2013-05-07 02:02:00,60.4,51.0,29.78,South,180,0.0,0.0,71,0.00,OVC,,0.00,0.0,WeatherDisplay:10.37,2013-05-07 09:02:00,
2013-05-07 02:07:00,60.6,51.2,29.77,ENE,68,0.0,0.0,71,0.00,OVC,,0.00,0.0,WeatherDisplay:10.37,2013-05-07 09:07:00,
2013-05-07 02:12:00,60.4,51.0,29.77,SE,135,0.0,0.0,71,0.00,OVC,,0.00,0.0,WeatherDisplay:10.37,2013-05-07 09:12:00,
2013-05-07 02:17:00,60.4,51.0,29.77,NE,45,0.0,0.0,71,0.00,OVC,,0.00,0.0,WeatherDisplay:10.37,2013-05-07 09:17:00,
2013-05-07 02:22:00,60.4,51.0,29.77,ENE,68,0.0,0.0,71,0.00,OVC,,0.00,0.0,WeatherDisplay:10.37,2013-05-07 09:22:00,
2013-05-07 02:27:00,60.4,51.4,29.78,ESE,112,0.0,0.0,72,0.00,OVC,,0.00,0.0,WeatherDisplay:10.37,2013-05-07 09:27:00,
2013-05-07 02:32:00,60.4,51.4,29.78,ESE,112,0.0,0.0,72,0.00,OVC,,0.00,0.0,WeatherDisplay:10.37,2013-05-07 09:32:00,
2013-05-07 02:37:00,60.4,51.4,29.78,East,90,0.0,0.0,72,0.00,OVC,,0.00,0.0,WeatherDisplay:10.37,2013-05-07 09:37:00,
2013-05-07 02:42:00,60.4,51.4,29.78,South,180,1.2,0.0,72,0.00,OVC,,0.00,0.0,WeatherDisplay:10.37,2013-05-07 09:42:00,
2013-05-07 02:47:00,60.6,51.5,29.78,NE,45,0.0,0.0,72,0.00,OVC,,0.00,0.0,WeatherDisplay:10.37,2013-05-07 09:47:00,
2013-05-07 02:52:00,60.4,51.4,29.78,SE,135,0.0,0.0,72,0.00,OVC,,0.00,0.0,WeatherDisplay:10.37,2013-05-07 09:52:00,
2013-05-07 02:57:00,60.6,51.2,29.78,West,270,0.0,0.0,71,0.00,OVC,,0.00,0.0,WeatherDisplay:10.37,2013-05-07 09:57:00,
2013-05-07 03:02:00,60.6,51.2,29.78,SSW,202,0.0,0.0,71,0.00,OVC,,0.00,0.0,WeatherDisplay:10.37,2013-05-07 10:02:00,
2013-05-07 03:07:00,60.6,51.2,29.78,East,90,0.0,0.0,71,0.00,OVC,,0.00,0.0,WeatherDisplay:10.37,2013-05-07 10:07:00,
2013-05-07 03:12:00,60.6,51.2,29.78,SE,135,0.0,0.0,71,0.00,OVC,,0.00,0.0,WeatherDisplay:10.37,2013-05-07 10:12:00,
2013-05-07 03:17:00,60.4,51.0,29.78,South,180,0.0,0.0,71,0.00,OVC,,0.00,0.0,WeatherDisplay:10.37,2013-05-07 10:17:00,
2013-05-07 03:22:00,60.4,51.0,29.78,SSW,202,1.2,1.2,71,0.00,OVC,,0.00,0.0,WeatherDisplay:10.37,2013-05-07 10:22:00,
2013-05-07 03:27:00,60.3,50.4,29.78,SE,135,0.0,0.3,70,0.00,OVC,,0.00,0.0,WeatherDisplay:10.37,2013-05-07 10:27:00,
2013-05-07 03:32:00,60.3,50.4,29.78,South,180,0.0,0.5,70,0.00,OVC,,0.00,0.0,WeatherDisplay:10.37,2013-05-07 10:32:00,
2013-05-07 03:37:00,60.1,49.9,29.78,SSE,158,1.2,1.2,69,0.00,OVC,,0.00,0.0,WeatherDisplay:10.37,2013-05-07 10:37:00,
2013-05-07 03:42:00,60.1,49.9,29.78,WSW,248,2.3,2.3,69,0.00,OVC,,0.00,0.0,WeatherDisplay:10.37,2013-05-07 10:42:00,
2013-05-07 03:47:00,60.1,49.9,29.79,SW,225,1.2,1.2,69,0.00,OVC,,0.00,0.0,WeatherDisplay:10.37,2013-05-07 10:47:00,
2013-05-07 03:52:00,60.1,49.9,29.79,South,180,1.2,1.2,69,0.00,OVC,,0.00,0.0,WeatherDisplay:10.37,2013-05-07 10:52:00,
2013-05-07 03:57:00,60.1,49.9,29.79,South,180,2.3,2.3,69,0.00,OVC,,0.00,0.0,WeatherDisplay:10.37,2013-05-07 10:57:00,
2013-05-07 04:02:00,60.1,49.9,29.79,SSW,202,1.2,1.2,69,0.00,OVC,,0.00,0.0,WeatherDisplay:10.37,2013-05-07 11:02:00,
2013-05-07 04:07:00,60.1,49.9,29.78,SW,225,1.2,1.2,69,0.00,OVC,,0.00,0.0,WeatherDisplay:10.37,2013-05-07 11:07:00,
2013-05-07 04:12:00,60.1,49.9,29.78,SSE,158,2.3,2.3,69,0.00,OVC,,0.00,0.0,WeatherDisplay:10.37,2013-05-07 11:12:00,
2013-05-07 04:17:00,59.9,49.3,29.78,WSW,248,0.0,1.2,68,0.00,OVC,,0.00,0.0,WeatherDisplay:10.37,2013-05-07 11:17:00,
2013-05-07 04:22:00,59.9,49.3,29.78,SW,225,2.3,2.3,68,0.00,OVC,,0.00,0.0,WeatherDisplay:10.37,2013-05-07 11:22:00,
2013-05-07 04:27:00,59.9,49.3,29.78,WSW,248,0.0,0.8,68,0.00,OVC,,0.00,0.0,WeatherDisplay:10.37,2013-05-07 11:27:00,
2013-05-07 04:32:00,59.9,49.3,29.78,SW,225,1.2,1.2,68,0.00,OVC,,0.00,0.0,WeatherDisplay:10.37,2013-05-07 11:32:00,
2013-05-07 04:37:00,59.9,49.3,29.78,North,0,0.0,0.7,68,0.00,OVC,,0.00,0.0,WeatherDisplay:10.37,2013-05-07 11:37:00,
2013-05-07 04:42:00,59.9,49.3,29.78,WSW,248,0.0,0.5,68,0.00,OVC,,0.00,0.0,WeatherDisplay:10.37,2013-05-07 11:42:00,
2013-05-07 04:47:00,59.7,49.1,29.78,SE,135,0.0,0.1,68,0.00,OVC,,0.00,0.0,WeatherDisplay:10.37,2013-05-07 11:47:00,
2013-05-07 04:52:00,59.7,49.1,29.78,SSE,158,0.0,0.0,68,0.00,OVC,,0.00,0.0,WeatherDisplay:10.37,2013-05-07 11:52:00,
2013-05-07 04:57:00,59.7,49.1,29.78,NE,45,0.0,0.0,68,0.00,OVC,,0.00,0.0,WeatherDisplay:10.37,2013-05-07 11:57:00,
2013-05-07 05:02:00,59.7,49.1,29.78,West,270,0.0,0.0,68,0.00,OVC,,0.00,0.0,WeatherDisplay:10.37,2013-05-07 12:02:00,
2013-05-07 05:07:00,59.7,49.5,29.79,SSW,202,0.0,0.0,69,0.00,OVC,,0.00,0.0,WeatherDisplay:10.37,2013-05-07 12:07:00,
2013-05-07 05:12:00,59.7,49.5,29.79,ESE,112,0.0,0.0,69,0.00,OVC,,0.00,0.0,WeatherDisplay:10.37,2013-05-07 12:12:00,
2013-05-07 05:17:00,59.7,49.5,29.79,ESE,112,0.0,0.0,69,0.00,OVC,,0.00,0.0,WeatherDisplay:10.37,2013-05-07 12:17:00,
2013-05-07 05:22:00,59.7,49.5,29.79,NNE,22,0.0,0.0,69,0.00,OVC,,0.00,0.0,WeatherDisplay:10.37,2013-05-07 12:22:00,
2013-05-07 05:27:00,59.7,49.5,29.79,SW,225,0.0,0.0,69,0.00,OVC,,0.00,0.0,WeatherDisplay:10.37,2013-05-07 12:27:00,
2013-05-07 05:32:00,59.7,49.5,29.79,WSW,248,0.0,0.0,69,0.00,OVC,,0.00,0.0,WeatherDisplay:10.37,2013-05-07 12:32:00,
2013-05-07 05:37:00,59.7,49.5,29.79,South,180,2.3,2.3,69,0.00,OVC,,0.00,0.0,WeatherDisplay:10.37,2013-05-07 12:37:00,
2013-05-07 05:42:00,59.7,49.5,29.79,SW,225,2.3,2.3,69,0.00,OVC,,0.00,0.0,WeatherDisplay:10.37,2013-05-07 12:42:00,
2013-05-07 05:47:00,59.7,49.5,29.79,WSW,248,0.0,0.3,69,0.00,OVC,,0.00,0.0,WeatherDisplay:10.37,2013-05-07 12:47:00,
2013-05-07 05:52:00,59.7,49.5,29.79,SSW,202,0.0,0.3,69,0.00,OVC,,0.00,0.0,WeatherDisplay:10.37,2013-05-07 12:52:00,
2013-05-07 05:57:00,59.7,49.9,29.79,SSE,158,0.0,0.0,70,0.00,OVC,,0.00,0.0,WeatherDisplay:10.37,2013-05-07 12:57:00,
2013-05-07 06:02:00,59.7,49.9,29.79,ESE,112,0.0,0.0,70,0.00,OVC,,0.00,0.0,WeatherDisplay:10.37,2013-05-07 13:02:00,
2013-05-07 06:07:00,59.4,49.6,29.80,ESE,112,0.0,0.0,70,0.00,OVC,,0.00,0.0,WeatherDisplay:10.37,2013-05-07 13:07:00,
2013-05-07 06:12:00,59.4,49.6,29.80,ENE,68,1.2,0.0,70,0.00,OVC,,0.00,0.0,WeatherDisplay:10.37,2013-05-07 13:12:00,
2013-05-07 06:17:00,59.4,50.0,29.80,SE,135,0.0,0.0,71,0.00,OVC,,0.00,0.0,WeatherDisplay:10.37,2013-05-07 13:17:00,
2013-05-07 06:22:00,59.4,50.0,29.80,SE,135,1.2,1.2,71,0.00,OVC,,0.00,0.0,WeatherDisplay:10.37,2013-05-07 13:22:00,
2013-05-07 06:27:00,59.4,50.0,29.80,SE,135,0.0,0.1,71,0.00,OVC,,0.00,0.0,WeatherDisplay:10.37,2013-05-07 13:27:00,
2013-05-07 06:32:00,59.5,50.1,29.80,SSW,202,0.0,0.0,71,0.00,OVC,,0.00,0.0,WeatherDisplay:10.37,2013-05-07 13:32:00,
2013-05-07 06:37:00,59.4,50.0,29.80,ENE,68,0.0,0.0,71,0.00,OVC,,0.00,0.0,WeatherDisplay:10.37,2013-05-07 13:37:00,
2013-05-07 06:42:00,59.4,50.0,29.80,East,90,1.2,0.0,71,0.00,OVC,,0.00,0.0,WeatherDisplay:10.37,2013-05-07 13:42:00,
2013-05-07 06:47:00,59.4,50.3,29.81,SSE,158,0.0,0.1,72,0.00,OVC,,0.00,0.0,WeatherDisplay:10.37,2013-05-07 13:47:00,
2013-05-07 06:52:00,59.5,50.5,29.81,NW,315,0.0,0.1,72,0.00,OVC,,0.00,0.0,WeatherDisplay:10.37,2013-05-07 13:52:00,
2013-05-07 06:57:00,59.5,50.5,29.81,SE,135,0.0,0.0,72,0.00,OVC,,0.00,0.0,WeatherDisplay:10.37,2013-05-07 13:57:00,
2013-05-07 07:02:00,59.7,50.7,29.81,SE,135,0.0,0.0,72,0.00,OVC,,0.00,0.0,WeatherDisplay:10.37,2013-05-07 14:02:00,
2013-05-07 07:07:00,59.7,50.7,29.82,ENE,68,0.0,0.0,72,0.00,OVC,,0.00,0.0,WeatherDisplay:10.37,2013-05-07 14:07:00,
2013-05-07 07:12:00,59.9,50.8,29.82,North,0,0.0,0.0,72,0.00,OVC,,0.00,0.0,WeatherDisplay:10.37,2013-05-07 14:12:00,
2013-05-07 07:17:00,59.9,50.5,29.82,SSE,158,1.2,1.2,71,0.00,OVC,,0.00,0.0,WeatherDisplay:10.37,2013-05-07 14:17:00,
2013-05-07 07:22:00,60.1,50.6,29.82,NW,315,0.0,0.3,71,0.00,OVC,,0.00,0.0,WeatherDisplay:10.37,2013-05-07 14:22:00,
2013-05-07 07:27:00,60.4,51.0,29.81,WSW,248,0.0,0.1,71,0.00,OVC,,0.00,0.0,WeatherDisplay:10.37,2013-05-07 14:27:00,
2013-05-07 07:32:00,60.6,51.2,29.81,South,180,0.0,0.1,71,0.00,OVC,,0.00,0.0,WeatherDisplay:10.37,2013-05-07 14:32:00,
2013-05-07 07:37:00,61.0,51.1,29.81,WSW,248,1.2,1.2,70,0.00,OVC,,0.00,0.0,WeatherDisplay:10.37,2013-05-07 14:37:00,
2013-05-07 07:42:00,61.5,51.6,29.81,SSW,202,1.2,1.2,70,0.00,OVC,,0.00,0.0,WeatherDisplay:10.37,2013-05-07 14:42:00,
2013-05-07 07:47:00,61.9,51.6,29.82,SW,225,1.2,1.2,69,0.00,OVC,,0.00,0.0,WeatherDisplay:10.37,2013-05-07 14:47:00,
2013-05-07 07:52:00,62.1,51.4,29.82,SSE,158,2.3,2.3,68,0.00,OVC,,0.00,0.0,WeatherDisplay:10.37,2013-05-07 14:52:00,
2013-05-07 07:57:00,62.1,51.0,29.82,SW,225,1.2,1.4,67,0.00,OVC,,0.00,0.0,WeatherDisplay:10.37,2013-05-07 14:57:00,
2013-05-07 08:02:00,62.2,50.7,29.82,SW,225,1.3,1.3,66,0.00,OVC,,0.00,0.0,WeatherDisplay:10.37,2013-05-07 15:02:00,
2013-05-07 08:07:00,62.4,50.5,29.82,WSW,248,0.0,0.6,65,0.00,OVC,,0.00,0.0,WeatherDisplay:10.37,2013-05-07 15:07:00,
2013-05-07 08:12:00,62.8,50.8,29.82,SSE,158,0.0,0.3,65,0.00,OVC,,0.00,0.0,WeatherDisplay:10.37,2013-05-07 15:12:00,
2013-05-07 08:17:00,62.8,50.4,29.82,SW,225,0.0,0.1,64,0.00,OVC,,0.00,0.0,WeatherDisplay:10.37,2013-05-07 15:17:00,
2013-05-07 08:22:00,63.1,50.8,29.82,SW,225,1.2,1.2,64,0.00,OVC,,0.00,0.0,WeatherDisplay:10.37,2013-05-07 15:22:00,
2013-05-07 08:27:00,63.5,50.2,29.83,SW,225,1.2,1.2,62,0.00,OVC,,0.00,0.0,WeatherDisplay:10.37,2013-05-07 15:27:00,
2013-05-07 08:32:00,63.9,50.6,29.83,South,180,2.3,2.3,62,0.00,OVC,,0.00,0.0,WeatherDisplay:10.37,2013-05-07 15:32:00,
2013-05-07 08:37:00,64.4,50.7,29.83,SW,225,2.3,2.3,61,0.00,OVC,,0.00,0.0,WeatherDisplay:10.37,2013-05-07 15:37:00,
2013-05-07 08:42:00,64.8,50.5,29.83,West,270,1.2,1.6,60,0.00,OVC,,0.00,0.0,WeatherDisplay:10.37,2013-05-07 15:42:00,
2013-05-07 08:47:00,65.1,50.9,29.83,SW,225,2.3,2.3,60,0.00,OVC,,0.00,0.0,WeatherDisplay:10.37,2013-05-07 15:47:00,
2013-05-07 08:52:00,65.3,51.1,29.83,SSE,158,3.5,3.5,60,0.00,OVC,,0.00,0.0,WeatherDisplay:10.37,2013-05-07 15:52:00,
2013-05-07 08:57:00,65.7,50.9,29.83,SW,225,2.3,2.3,59,0.00,OVC,,0.00,0.0,WeatherDisplay:10.37,2013-05-07 15:57:00,
2013-05-07 09:02:00,66.0,51.3,29.83,SSW,202,2.4,2.4,59,0.00,OVC,,0.00,0.0,WeatherDisplay:10.37,2013-05-07 16:02:00,
2013-05-07 09:07:00,66.2,50.5,29.83,WSW,248,2.3,2.3,57,0.00,OVC,,0.00,0.0,WeatherDisplay:10.37,2013-05-07 16:07:00,
2013-05-07 09:12:00,66.7,51.5,29.83,SW,225,2.3,2.3,58,0.00,OVC,,0.00,0.0,WeatherDisplay:10.37,2013-05-07 16:12:00,
2013-05-07 09:17:00,67.1,51.4,29.83,West,270,1.2,1.2,57,0.00,OVC,,0.00,0.0,WeatherDisplay:10.37,2013-05-07 16:17:00,
2013-05-07 09:22:00,67.5,51.2,29.83,SSW,202,2.6,2.6,56,0.00,OVC,,0.00,0.0,WeatherDisplay:10.37,2013-05-07 16:22:00,
2013-05-07 09:27:00,68.0,51.7,29.84,SSW,202,2.4,2.4,56,0.00,OVC,,0.00,0.0,WeatherDisplay:10.37,2013-05-07 16:27:00,
2013-05-07 09:32:00,68.2,51.4,29.84,SW,225,2.3,2.3,55,0.00,OVC,,0.00,0.0,WeatherDisplay:10.37,2013-05-07 16:32:00,
2013-05-07 09:37:00,68.5,51.2,29.84,SE,135,2.3,2.3,54,0.00,OVC,,0.00,0.0,WeatherDisplay:10.37,2013-05-07 16:37:00,
2013-05-07 09:42:00,68.5,50.2,29.84,SSW,202,2.3,2.3,52,0.00,OVC,,0.00,0.0,WeatherDisplay:10.37,2013-05-07 16:42:00,
2013-05-07 09:47:00,69.3,49.8,29.84,South,180,2.3,2.3,50,0.00,OVC,,0.00,0.0,WeatherDisplay:10.37,2013-05-07 16:47:00,
2013-05-07 09:52:00,69.8,49.8,29.84,SSW,202,3.5,3.5,49,0.00,OVC,,0.00,0.0,WeatherDisplay:10.37,2013-05-07 16:52:00,
2013-05-07 09:57:00,70.7,50.0,29.84,SSW,202,1.2,1.7,48,0.00,OVC,,0.00,0.0,WeatherDisplay:10.37,2013-05-07 16:57:00,
2013-05-07 10:02:00,71.4,50.7,29.84,SSW,202,2.3,2.3,48,0.00,OVC,,0.00,0.0,WeatherDisplay:10.37,2013-05-07 17:02:00,
2013-05-07 10:07:00,72.0,50.0,29.84,WNW,292,2.3,2.3,46,0.00,OVC,,0.00,0.0,WeatherDisplay:10.37,2013-05-07 17:07:00,
2013-05-07 10:12:00,72.0,50.0,29.84,SW,225,4.6,4.6,46,0.00,OVC,,0.00,0.0,WeatherDisplay:10.37,2013-05-07 17:12:00,
2013-05-07 10:17:00,72.9,49.7,29.84,South,180,2.3,2.3,44,0.00,OVC,,0.00,0.0,WeatherDisplay:10.37,2013-05-07 17:17:00,
2013-05-07 10:22:00,73.6,49.7,29.84,South,180,3.5,3.5,43,0.00,OVC,,0.00,0.0,WeatherDisplay:10.37,2013-05-07 17:22:00,
2013-05-07 10:27:00,74.8,49.6,29.84,SE,135,4.6,4.6,41,0.00,OVC,,0.00,0.0,WeatherDisplay:10.37,2013-05-07 17:27:00,
2013-05-07 10:32:00,75.6,49.5,29.84,SSE,158,4.9,4.9,40,0.00,OVC,,0.00,0.0,WeatherDisplay:10.37,2013-05-07 17:32:00,
2013-05-07 10:37:00,76.3,48.8,29.84,SW,225,6.3,6.3,38,0.00,OVC,,0.00,0.0,WeatherDisplay:10.37,2013-05-07 17:37:00,
2013-05-07 10:42:00,76.6,48.4,29.84,SSE,158,6.1,6.1,37,0.00,OVC,,0.00,0.0,WeatherDisplay:10.37,2013-05-07 17:42:00,
2013-05-07 10:47:00,77.7,48.6,29.84,East,90,3.5,3.5,36,0.00,OVC,,0.00,0.0,WeatherDisplay:10.37,2013-05-07 17:47:00,
2013-05-07 10:52:00,78.1,48.2,29.84,SW,225,4.6,4.6,35,0.00,OVC,,0.00,0.0,WeatherDisplay:10.37,2013-05-07 17:52:00,
2013-05-07 10:57:00,77.5,46.2,29.84,WSW,248,4.7,4.7,33,0.00,OVC,,0.00,0.0,WeatherDisplay:10.37,2013-05-07 17:57:00,
2013-05-07 11:02:00,77.4,46.0,29.84,SSE,158,5.1,5.1,33,0.00,OVC,,0.00,0.0,WeatherDisplay:10.37,2013-05-07 18:02:00,
2013-05-07 11:07:00,77.5,46.2,29.83,SW,225,4.6,4.6,33,0.00,OVC,,0.00,0.0,WeatherDisplay:10.37,2013-05-07 18:07:00,
2013-05-07 11:12:00,77.5,45.3,29.83,WSW,248,6.9,6.9,32,0.00,OVC,,0.00,0.0,WeatherDisplay:10.37,2013-05-07 18:12:00,
2013-05-07 11:17:00,77.7,44.7,29.83,South,180,5.8,5.8,31,0.00,OVC,,0.00,0.0,WeatherDisplay:10.37,2013-05-07 18:17:00,
2013-05-07 11:22:00,78.6,45.4,29.83,South,180,6.9,6.9,31,0.00,OVC,,0.00,0.0,WeatherDisplay:10.37,2013-05-07 18:22:00,
2013-05-07 11:27:00,79.7,46.4,29.84,SW,225,5.8,5.8,31,0.00,OVC,,0.00,0.0,WeatherDisplay:10.37,2013-05-07 18:27:00,
2013-05-07 11:32:00,80.2,46.0,29.84,NNE,22,2.3,2.8,30,0.00,OVC,,0.00,0.0,WeatherDisplay:10.37,2013-05-07 18:32:00,
2013-05-07 11:37:00,81.0,45.7,29.84,South,180,3.1,3.1,29,0.00,OVC,,0.00,0.0,WeatherDisplay:10.37,2013-05-07 18:37:00,
2013-05-07 11:42:00,81.1,46.8,29.84,SSE,158,6.9,6.9,30,0.00,OVC,,0.00,0.0,WeatherDisplay:10.37,2013-05-07 18:42:00,
2013-05-07 11:47:00,81.0,45.7,29.83,SSW,202,3.5,3.5,29,0.00,OVC,,0.00,0.0,WeatherDisplay:10.37,2013-05-07 18:47:00,
2013-05-07 11:52:00,81.5,45.2,29.83,East,90,5.2,5.2,28,0.00,OVC,,0.00,0.0,WeatherDisplay:10.37,2013-05-07 18:52:00,
2013-05-07 11:57:00,81.9,43.6,29.83,WSW,248,8.3,8.3,26,0.00,OVC,,0.00,0.0,WeatherDisplay:10.37,2013-05-07 18:57:00,
2013-05-07 12:02:00,81.7,43.5,29.83,SE,135,2.6,3.1,26,0.00,OVC,,0.00,0.0,WeatherDisplay:10.37,2013-05-07 19:02:00,
2013-05-07 12:07:00,81.3,42.1,29.83,South,180,5.8,5.8,25,0.00,OVC,,0.00,0.0,WeatherDisplay:10.37,2013-05-07 19:07:00,
2013-05-07 12:12:00,81.0,42.8,29.83,WSW,248,6.9,6.9,26,0.00,OVC,,0.00,0.0,WeatherDisplay:10.37,2013-05-07 19:12:00,
2013-05-07 12:17:00,80.8,41.7,29.83,East,90,4.6,4.6,25,0.00,OVC,,0.00,0.0,WeatherDisplay:10.37,2013-05-07 19:17:00,
2013-05-07 12:22:00,81.3,41.1,29.83,WSW,248,6.9,6.9,24,0.00,OVC,,0.00,0.0,WeatherDisplay:10.37,2013-05-07 19:22:00,
2013-05-07 12:27:00,81.7,41.4,29.83,NW,315,3.5,3.5,24,0.00,OVC,,0.00,0.0,WeatherDisplay:10.37,2013-05-07 19:27:00,
2013-05-07 12:32:00,81.5,41.2,29.83,West,270,8.1,8.1,24,0.00,OVC,,0.00,0.0,WeatherDisplay:10.37,2013-05-07 19:32:00,
2013-05-07 12:37:00,82.0,40.6,29.83,West,270,5.6,5.6,23,0.00,OVC,,0.00,0.0,WeatherDisplay:10.37,2013-05-07 19:37:00,
2013-05-07 12:42:00,81.9,39.3,29.83,NNW,338,3.5,3.5,22,0.00,OVC,,0.00,0.0,WeatherDisplay:10.37,2013-05-07 19:42:00,
2013-05-07 12:47:00,82.0,39.4,29.83,SSW,202,4.4,4.4,22,0.00,OVC,,0.00,0.0,WeatherDisplay:10.37,2013-05-07 19:47:00,
2013-05-07 12:52:00,81.3,37.6,29.83,WNW,292,4.6,4.6,21,0.00,OVC,,0.00,0.0,WeatherDisplay:10.37,2013-05-07 19:52:00,
2013-05-07 12:57:00,80.8,37.2,29.83,SE,135,3.5,3.5,21,0.00,OVC,,0.00,0.0,WeatherDisplay:10.37,2013-05-07 19:57:00,
2013-05-07 13:02:00,81.3,37.6,29.83,SW,225,3.5,3.5,21,0.00,BKN,OVC,0.00,0.0,WeatherDisplay:10.37,2013-05-07 20:02:00,
2013-05-07 13:07:00,81.7,37.9,29.82,SW,225,2.3,2.3,21,0.00,BKN,OVC,0.00,0.0,WeatherDisplay:10.37,2013-05-07 20:07:00,
2013-05-07 13:12:00,81.9,38.1,29.82,ESE,112,4.6,4.6,21,0.00,BKN,OVC,0.00,0.0,WeatherDisplay:10.37,2013-05-07 20:12:00,
2013-05-07 13:17:00,82.2,38.4,29.82,WSW,248,3.5,3.5,21,0.00,BKN,OVC,0.00,0.0,WeatherDisplay:10.37,2013-05-07 20:17:00,
2013-05-07 13:22:00,82.0,37.0,29.82,SW,225,4.6,4.6,20,0.00,BKN,OVC,0.00,0.0,WeatherDisplay:10.37,2013-05-07 20:22:00,
2013-05-07 13:27:00,82.6,37.4,29.81,WSW,248,3.5,3.5,20,0.00,BKN,OVC,0.00,0.0,WeatherDisplay:10.37,2013-05-07 20:27:00,
2013-05-07 13:32:00,83.3,38.0,29.81,WSW,248,5.8,5.8,20,0.00,BKN,OVC,0.00,0.0,WeatherDisplay:10.37,2013-05-07 20:32:00,
2013-05-07 13:37:00,84.2,38.8,29.81,West,270,2.3,3.6,20,0.00,BKN,OVC,0.00,0.0,WeatherDisplay:10.37,2013-05-07 20:37:00,
2013-05-07 13:42:00,84.2,38.8,29.81,SSW,202,6.9,6.9,20,0.00,BKN,OVC,0.00,0.0,WeatherDisplay:10.37,2013-05-07 20:42:00,
2013-05-07 13:47:00,83.3,38.0,29.81,WNW,292,3.5,3.5,20,0.00,BKN,OVC,0.00,0.0,WeatherDisplay:10.37,2013-05-07 20:47:00,
2013-05-07 13:52:00,83.3,38.0,29.81,SW,225,3.5,3.6,20,0.00,BKN,OVC,0.00,0.0,WeatherDisplay:10.37,2013-05-07 20:52:00,
2013-05-07 13:57:00,83.3,38.0,29.81,South,180,5.8,5.8,20,0.00,BKN,OVC,0.00,0.0,WeatherDisplay:10.37,2013-05-07 20:57:00,
2013-05-07 14:02:00,83.3,38.0,29.81,SW,225,4.6,4.6,20,0.00,OVC,,0.00,0.0,WeatherDisplay:10.37,2013-05-07 21:02:00,
2013-05-07 14:07:00,83.3,38.0,29.81,ESE,112,2.3,2.3,20,0.00,OVC,,0.00,0.0,WeatherDisplay:10.37,2013-05-07 21:07:00,
2013-05-07 14:12:00,82.9,36.4,29.81,NNE,22,3.5,3.5,19,0.00,OVC,,0.00,0.0,WeatherDisplay:10.37,2013-05-07 21:12:00,
2013-05-07 14:17:00,82.4,33.2,29.81,SW,225,5.8,5.8,17,0.00,OVC,,0.00,0.0,WeatherDisplay:10.37,2013-05-07 21:17:00,
2013-05-07 14:22:00,82.8,33.5,29.81,SSW,202,8.1,8.1,17,0.00,OVC,,0.00,0.0,WeatherDisplay:10.37,2013-05-07 21:22:00,
2013-05-07 14:27:00,83.1,35.2,29.81,ENE,68,5.8,5.8,18,0.00,OVC,,0.00,0.0,WeatherDisplay:10.37,2013-05-07 21:27:00,
2013-05-07 14:32:00,82.9,35.1,29.81,SSW,202,8.1,8.1,18,0.00,OVC,,0.00,0.0,WeatherDisplay:10.37,2013-05-07 21:32:00,
2013-05-07 14:37:00,83.1,33.8,29.81,NNE,22,2.3,2.6,17,0.00,OVC,,0.00,0.0,WeatherDisplay:10.37,2013-05-07 21:37:00,
2013-05-07 14:42:00,83.1,33.8,29.81,South,180,2.5,2.5,17,0.00,OVC,,0.00,0.0,WeatherDisplay:10.37,2013-05-07 21:42:00,
2013-05-07 14:47:00,82.9,33.6,29.80,South,180,4.6,4.6,17,0.00,OVC,,0.00,0.0,WeatherDisplay:10.37,2013-05-07 21:47:00,
2013-05-07 14:52:00,82.6,33.3,29.80,WNW,292,4.6,4.6,17,0.00,OVC,,0.00,0.0,WeatherDisplay:10.37,2013-05-07 21:52:00,
2013-05-07 14:57:00,82.9,33.6,29.80,West,270,4.6,4.6,17,0.00,OVC,,0.00,0.0,WeatherDisplay:10.37,2013-05-07 21:57:00,
2013-05-07 15:02:00,82.6,31.8,29.80,WSW,248,1.2,2.5,16,0.00,FEW,OVC,0.00,0.0,WeatherDisplay:10.37,2013-05-07 22:02:00,
2013-05-07 15:07:00,82.6,33.3,29.79,WSW,248,4.6,4.6,17,0.00,FEW,OVC,0.00,0.0,WeatherDisplay:10.37,2013-05-07 22:07:00,
2013-05-07 15:12:00,82.8,34.9,29.79,WSW,248,4.6,4.6,18,0.00,FEW,OVC,0.00,0.0,WeatherDisplay:10.37,2013-05-07 22:12:00,
2013-05-07 15:17:00,82.8,34.9,29.79,WNW,292,2.3,2.5,18,0.00,FEW,OVC,0.00,0.0,WeatherDisplay:10.37,2013-05-07 22:17:00,
2013-05-07 15:22:00,83.3,35.4,29.79,SW,225,4.6,4.6,18,0.00,FEW,OVC,0.00,0.0,WeatherDisplay:10.37,2013-05-07 22:22:00,
2013-05-07 15:27:00,83.1,32.3,29.79,SW,225,4.6,4.6,16,0.00,FEW,OVC,0.00,0.0,WeatherDisplay:10.37,2013-05-07 22:27:00,
2013-05-07 15:32:00,83.3,33.9,29.79,SE,135,4.6,4.6,17,0.00,FEW,OVC,0.00,0.0,WeatherDisplay:10.37,2013-05-07 22:32:00,
2013-05-07 15:37:00,82.9,32.1,29.79,SSW,202,2.3,4.3,16,0.00,FEW,OVC,0.00,0.0,WeatherDisplay:10.37,2013-05-07 22:37:00,
2013-05-07 15:42:00,82.6,31.8,29.79,SW,225,8.1,8.1,16,0.00,FEW,OVC,0.00,0.0,WeatherDisplay:10.37,2013-05-07 22:42:00,
2013-05-07 15:47:00,81.7,32.6,29.79,SSE,158,4.6,4.9,17,0.00,FEW,OVC,0.00,0.0,WeatherDisplay:10.37,2013-05-07 22:47:00,
2013-05-07 15:52:00,81.3,32.3,29.79,South,180,4.6,4.6,17,0.00,FEW,OVC,0.00,0.0,WeatherDisplay:10.37,2013-05-07 22:52:00,
2013-05-07 15:57:00,81.5,33.9,29.79,SW,225,4.6,4.6,18,0.00,FEW,OVC,0.00,0.0,WeatherDisplay:10.37,2013-05-07 22:57:00,
2013-05-07 16:02:00,81.1,33.6,29.79,WSW,248,6.9,6.9,18,0.00,BKN,OVC,0.00,0.0,WeatherDisplay:10.37,2013-05-07 23:02:00,
2013-05-07 16:07:00,81.1,35.0,29.78,SW,225,4.6,4.6,19,0.00,BKN,OVC,0.00,0.0,WeatherDisplay:10.37,2013-05-07 23:07:00,
2013-05-07 16:12:00,80.6,34.5,29.78,WSW,248,6.9,6.9,19,0.00,BKN,OVC,0.00,0.0,WeatherDisplay:10.37,2013-05-07 23:12:00,
2013-05-07 16:17:00,80.8,36.0,29.78,South,180,2.3,4.4,20,0.00,BKN,OVC,0.00,0.0,WeatherDisplay:10.37,2013-05-07 23:17:00,
2013-05-07 16:22:00,80.6,35.8,29.78,SW,225,4.6,4.6,20,0.00,BKN,OVC,0.00,0.0,WeatherDisplay:10.37,2013-05-07 23:22:00,
2013-05-07 16:27:00,81.1,36.2,29.77,WSW,248,2.3,3.7,20,0.00,BKN,OVC,0.00,0.0,WeatherDisplay:10.37,2013-05-07 23:27:00,
2013-05-07 16:32:00,80.6,35.8,29.77,SW,225,8.1,8.1,20,0.00,BKN,OVC,0.00,0.0,WeatherDisplay:10.37,2013-05-07 23:32:00,
2013-05-07 16:37:00,80.4,36.9,29.77,SE,135,6.9,6.9,21,0.00,BKN,OVC,0.00,0.0,WeatherDisplay:10.37,2013-05-07 23:37:00,
2013-05-07 16:42:00,80.1,36.6,29.77,WSW,248,5.8,5.8,21,0.00,BKN,OVC,0.00,0.0,WeatherDisplay:10.37,2013-05-07 23:42:00,
2013-05-07 16:47:00,79.9,36.4,29.77,SW,225,4.6,4.6,21,0.00,BKN,OVC,0.00,0.0,WeatherDisplay:10.37,2013-05-07 23:47:00,
2013-05-07 16:52:00,79.5,36.1,29.77,SW,225,4.6,4.6,21,0.00,BKN,OVC,0.00,0.0,WeatherDisplay:10.37,2013-05-07 23:52:00,
2013-05-07 16:57:00,78.6,34.2,29.77,South,180,3.5,3.5,20,0.00,BKN,OVC,0.00,0.0,WeatherDisplay:10.37,2013-05-07 23:57:00,
2013-05-07 17:02:00,78.8,35.5,29.77,WNW,292,3.5,3.5,21,0.00,OVC,,0.00,0.0,WeatherDisplay:10.37,2013-05-08 00:02:00,
2013-05-07 17:07:00,78.8,35.5,29.77,WSW,248,2.3,2.6,21,0.00,OVC,,0.00,0.0,WeatherDisplay:10.37,2013-05-08 00:07:00,
2013-05-07 17:12:00,78.6,34.2,29.77,WSW,248,2.3,2.3,20,0.00,OVC,,0.00,0.0,WeatherDisplay:10.37,2013-05-08 00:12:00,
2013-05-07 17:17:00,78.4,34.0,29.77,NW,315,2.3,2.3,20,0.00,OVC,,0.00,0.0,WeatherDisplay:10.37,2013-05-08 00:17:00,
2013-05-07 17:22:00,78.3,33.9,29.77,NNW,338,4.6,4.6,20,0.00,OVC,,0.00,0.0,WeatherDisplay:10.37,2013-05-08 00:22:00,
2013-05-07 17:27:00,77.7,33.4,29.77,West,270,3.5,3.5,20,0.00,OVC,,0.00,0.0,WeatherDisplay:10.37,2013-05-08 00:27:00,
2013-05-07 17:32:00,77.7,33.4,29.77,NNE,22,2.3,2.3,20,0.00,OVC,,0.00,0.0,WeatherDisplay:10.37,2013-05-08 00:32:00,
2013-05-07 17:37:00,77.7,33.4,29.77,WSW,248,4.6,4.6,20,0.00,OVC,,0.00,0.0,WeatherDisplay:10.37,2013-05-08 00:37:00,
2013-05-07 17:42:00,77.5,33.3,29.77,North,0,2.3,2.4,20,0.00,OVC,,0.00,0.0,WeatherDisplay:10.37,2013-05-08 00:42:00,
2013-05-07 17:47:00,77.7,33.4,29.77,South,180,2.3,2.3,20,0.00,OVC,,0.00,0.0,WeatherDisplay:10.37,2013-05-08 00:47:00,
2013-05-07 17:52:00,77.5,33.3,29.77,SW,225,2.3,2.3,20,0.00,OVC,,0.00,0.0,WeatherDisplay:10.37,2013-05-08 00:52:00,
2013-05-07 17:57:00,77.7,33.4,29.77,NW,315,2.3,2.3,20,0.00,OVC,,0.00,0.0,WeatherDisplay:10.37,2013-05-08 00:57:00,
2013-05-07 18:02:00,77.4,34.4,29.77,NW,315,2.3,2.3,21,0.00,OVC,,0.00,0.0,WeatherDisplay:10.37,2013-05-08 01:02:00,
2013-05-07 18:07:00,77.2,34.2,29.77,SW,225,3.5,3.5,21,0.00,OVC,,0.00,0.0,WeatherDisplay:10.37,2013-05-08 01:07:00,
2013-05-07 18:12:00,77.0,34.1,29.77,NNW,338,3.5,3.5,21,0.00,OVC,,0.00,0.0,WeatherDisplay:10.37,2013-05-08 01:12:00,
2013-05-07 18:17:00,76.8,36.2,29.77,WSW,248,2.3,2.5,23,0.00,OVC,,0.00,0.0,WeatherDisplay:10.37,2013-05-08 01:17:00,
2013-05-07 18:22:00,77.0,35.2,29.77,WSW,248,2.3,2.5,22,0.00,OVC,,0.00,0.0,WeatherDisplay:10.37,2013-05-08 01:22:00,
2013-05-07 18:27:00,76.6,37.1,29.78,WNW,292,4.6,4.6,24,0.00,OVC,,0.00,0.0,WeatherDisplay:10.37,2013-05-08 01:27:00,
2013-05-07 18:32:00,76.5,37.0,29.78,NW,315,2.3,2.3,24,0.00,OVC,,0.00,0.0,WeatherDisplay:10.37,2013-05-08 01:32:00,
2013-05-07 18:37:00,76.5,37.0,29.78,West,270,2.3,2.3,24,0.00,OVC,,0.00,0.0,WeatherDisplay:10.37,2013-05-08 01:37:00,
2013-05-07 18:42:00,76.6,38.2,29.78,SSW,202,3.5,3.5,25,0.00,OVC,,0.00,0.0,WeatherDisplay:10.37,2013-05-08 01:42:00,
2013-05-07 18:47:00,76.3,36.8,29.77,WSW,248,3.5,3.5,24,0.00,OVC,,0.00,0.0,WeatherDisplay:10.37,2013-05-08 01:47:00,
2013-05-07 18:52:00,76.3,36.8,29.77,WSW,248,3.5,3.5,24,0.00,OVC,,0.00,0.0,WeatherDisplay:10.37,2013-05-08 01:52:00,
2013-05-07 18:57:00,75.7,37.4,29.77,West,270,3.5,3.5,25,0.00,OVC,,0.00,0.0,WeatherDisplay:10.37,2013-05-08 01:57:00,
2013-05-07 19:02:00,75.7,37.4,29.77,SW,225,3.5,3.5,25,0.00,OVC,,0.00,0.0,WeatherDisplay:10.37,2013-05-08 02:02:00,
2013-05-07 19:07:00,75.7,38.4,29.77,West,270,1.2,2.6,26,0.00,OVC,,0.00,0.0,WeatherDisplay:10.37,2013-05-08 02:07:00,
2013-05-07 19:12:00,75.4,38.1,29.77,SW,225,3.5,3.5,26,0.00,OVC,,0.00,0.0,WeatherDisplay:10.37,2013-05-08 02:12:00,
2013-05-07 19:17:00,75.2,39.8,29.77,SW,225,3.5,3.5,28,0.00,OVC,,0.00,0.0,WeatherDisplay:10.37,2013-05-08 02:17:00,
2013-05-07 19:22:00,75.0,40.6,29.77,West,270,3.5,3.5,29,0.00,OVC,,0.00,0.0,WeatherDisplay:10.37,2013-05-08 02:22:00,
2013-05-07 19:27:00,74.8,41.3,29.77,WSW,248,3.5,3.5,30,0.00,OVC,,0.00,0.0,WeatherDisplay:10.37,2013-05-08 02:27:00,
2013-05-07 19:32:00,74.7,41.2,29.77,WSW,248,2.3,2.3,30,0.00,OVC,,0.00,0.0,WeatherDisplay:10.37,2013-05-08 02:32:00,
2013-05-07 19:37:00,74.5,41.0,29.77,WSW,248,1.2,2.0,30,0.00,OVC,,0.00,0.0,WeatherDisplay:10.37,2013-05-08 02:37:00,
2013-05-07 19:42:00,74.5,41.0,29.77,WSW,248,2.3,2.3,30,0.00,OVC,,0.00,0.0,WeatherDisplay:10.37,2013-05-08 02:42:00,
2013-05-07 19:47:00,74.1,40.7,29.77,West,270,1.2,1.7,30,0.00,OVC,,0.00,0.0,WeatherDisplay:10.37,2013-05-08 02:47:00,
2013-05-07 19:52:00,73.9,40.5,29.77,WSW,248,2.3,2.3,30,0.00,OVC,,0.00,0.0,WeatherDisplay:10.37,2013-05-08 02:52:00,
2013-05-07 19:57:00,73.8,40.4,29.77,South,180,1.2,1.4,30,0.00,OVC,,0.00,0.0,WeatherDisplay:10.37,2013-05-08 02:57:00,
2013-05-07 20:02:00,73.6,40.2,29.77,SW,225,2.3,2.3,30,0.00,OVC,,0.00,0.0,WeatherDisplay:10.37,2013-05-08 03:02:00,
2013-05-07 20:07:00,73.4,40.1,29.78,West,270,1.2,1.2,30,0.00,OVC,,0.00,0.0,WeatherDisplay:10.37,2013-05-08 03:07:00,
2013-05-07 20:12:00,73.4,40.1,29.78,West,270,2.3,2.3,30,0.00,OVC,,0.00,0.0,WeatherDisplay:10.37,2013-05-08 03:12:00,
2013-05-07 20:17:00,73.2,42.4,29.78,South,180,0.0,0.3,33,0.00,OVC,,0.00,0.0,WeatherDisplay:10.37,2013-05-08 03:17:00,
2013-05-07 20:22:00,73.0,42.2,29.78,SW,225,2.3,2.3,33,0.00,OVC,,0.00,0.0,WeatherDisplay:10.37,2013-05-08 03:22:00,
2013-05-07 20:27:00,72.9,42.1,29.78,SW,225,1.2,1.2,33,0.00,OVC,,0.00,0.0,WeatherDisplay:10.37,2013-05-08 03:27:00,
2013-05-07 20:32:00,72.7,42.7,29.78,South,180,2.3,2.3,34,0.00,OVC,,0.00,0.0,WeatherDisplay:10.37,2013-05-08 03:32:00,
2013-05-07 20:37:00,72.0,42.0,29.78,South,180,2.3,3.0,34,0.00,OVC,,0.00,0.0,WeatherDisplay:10.37,2013-05-08 03:37:00,
2013-05-07 20:42:00,71.6,41.7,29.78,South,180,4.6,4.6,34,0.00,OVC,,0.00,0.0,WeatherDisplay:10.37,2013-05-08 03:42:00,
2013-05-07 20:47:00,71.2,41.4,29.79,SSW,202,3.5,3.6,34,0.00,OVC,,0.00,0.0,WeatherDisplay:10.37,2013-05-08 03:47:00,
2013-05-07 20:52:00,71.2,40.6,29.79,WSW,248,4.6,4.6,33,0.00,OVC,,0.00,0.0,WeatherDisplay:10.37,2013-05-08 03:52:00,
2013-05-07 20:57:00,70.9,40.3,29.79,WSW,248,5.8,5.8,33,0.00,OVC,,0.00,0.0,WeatherDisplay:10.37,2013-05-08 03:57:00,
2013-05-07 21:01:00,70.5,40.0,29.79,WSW,248,7.2,7.2,33,0.00,OVC,,0.00,0.0,WeatherDisplay:10.37,2013-05-08 04:01:00,
2013-05-07 21:06:00,70.3,39.9,29.80,WSW,248,6.9,6.9,33,0.00,OVC,,0.00,0.0,WeatherDisplay:10.37,2013-05-08 04:06:00,
2013-05-07 21:11:00,70.2,39.7,29.80,SW,225,1.2,3.0,33,0.00,OVC,,0.00,0.0,WeatherDisplay:10.37,2013-05-08 04:11:00,
2013-05-07 21:16:00,70.2,40.5,29.80,South,180,4.6,4.6,34,0.00,OVC,,0.00,0.0,WeatherDisplay:10.37,2013-05-08 04:16:00,
2013-05-07 21:21:00,69.6,40.0,29.80,SSW,202,3.5,3.5,34,0.00,OVC,,0.00,0.0,WeatherDisplay:10.37,2013-05-08 04:21:00,
2013-05-07 21:26:00,69.4,39.8,29.80,SW,225,4.6,4.6,34,0.00,OVC,,0.00,0.0,WeatherDisplay:10.37,2013-05-08 04:26:00,
2013-05-07 21:31:00,69.1,40.3,29.80,South,180,4.6,4.6,35,0.00,OVC,,0.00,0.0,WeatherDisplay:10.37,2013-05-08 04:31:00,
2013-05-07 21:36:00,68.7,39.9,29.80,SW,225,4.6,4.6,35,0.00,OVC,,0.00,0.0,WeatherDisplay:10.37,2013-05-08 04:36:00,
2013-05-07 21:41:00,68.7,39.9,29.80,WNW,292,4.6,4.6,35,0.00,OVC,,0.00,0.0,WeatherDisplay:10.37,2013-05-08 04:41:00,
2013-05-07 21:46:00,68.5,39.8,29.80,West,270,4.6,4.6,35,0.00,OVC,,0.00,0.0,WeatherDisplay:10.37,2013-05-08 04:46:00,
2013-05-07 21:51:00,68.4,40.4,29.80,South,180,3.5,3.5,36,0.00,OVC,,0.00,0.0,WeatherDisplay:10.37,2013-05-08 04:51:00,
2013-05-07 21:56:00,68.2,40.2,29.80,South,180,5.8,5.8,36,0.00,OVC,,0.00,0.0,WeatherDisplay:10.37,2013-05-08 04:56:00,
2013-05-07 22:01:00,67.8,39.9,29.80,West,270,5.8,5.8,36,0.00,OVC,,0.00,0.0,WeatherDisplay:10.37,2013-05-08 05:01:00,
2013-05-07 22:06:00,67.6,40.4,29.81,SW,225,6.9,6.9,37,0.00,OVC,,0.00,0.0,WeatherDisplay:10.37,2013-05-08 05:06:00,
2013-05-07 22:11:00,67.5,40.3,29.81,WSW,248,5.8,5.8,37,0.00,OVC,,0.00,0.0,WeatherDisplay:10.37,2013-05-08 05:11:00,
2013-05-07 22:16:00,67.3,40.1,29.81,SW,225,5.8,5.8,37,0.00,OVC,,0.00,0.0,WeatherDisplay:10.37,2013-05-08 05:16:00,
2013-05-07 22:21:00,67.1,40.6,29.81,SW,225,5.8,5.8,38,0.00,OVC,,0.00,0.0,WeatherDisplay:10.37,2013-05-08 05:21:00,
2013-05-07 22:26:00,66.9,40.5,29.81,SW,225,4.6,4.6,38,0.00,OVC,,0.00,0.0,WeatherDisplay:10.37,2013-05-08 05:26:00,
2013-05-07 22:31:00,66.9,41.1,29.81,WSW,248,3.5,3.5,39,0.00,OVC,,0.00,0.0,WeatherDisplay:10.37,2013-05-08 05:31:00,
2013-05-07 22:36:00,66.7,41.0,29.81,West,270,4.6,4.6,39,0.00,OVC,,0.00,0.0,WeatherDisplay:10.37,2013-05-08 05:36:00,
2013-05-07 22:41:00,66.6,40.8,29.81,SW,225,3.5,3.5,39,0.00,OVC,,0.00,0.0,WeatherDisplay:10.37,2013-05-08 05:41:00,
2013-05-07 22:46:00,66.6,41.5,29.82,SE,135,3.5,3.5,40,0.00,OVC,,0.00,0.0,WeatherDisplay:10.37,2013-05-08 05:46:00,
2013-05-07 22:51:00,66.2,41.2,29.82,WSW,248,4.6,4.6,40,0.00,OVC,,0.00,0.0,WeatherDisplay:10.37,2013-05-08 05:51:00,
2013-05-07 22:56:00,66.0,41.6,29.82,WSW,248,6.9,6.9,41,0.00,OVC,,0.00,0.0,WeatherDisplay:10.37,2013-05-08 05:56:00,
2013-05-07 23:01:00,65.7,41.9,29.82,WSW,248,6.6,6.6,42,0.00,BKN,OVC,0.00,0.0,WeatherDisplay:10.37,2013-05-08 06:01:00,
2013-05-07 23:06:00,65.7,41.9,29.82,WSW,248,4.6,4.6,42,0.00,BKN,OVC,0.00,0.0,WeatherDisplay:10.37,2013-05-08 06:06:00,
2013-05-07 23:11:00,65.5,42.4,29.82,SW,225,4.6,4.6,43,0.00,BKN,OVC,0.00,0.0,WeatherDisplay:10.37,2013-05-08 06:11:00,
2013-05-07 23:16:00,65.5,42.4,29.82,South,180,2.4,2.9,43,0.00,BKN,OVC,0.00,0.0,WeatherDisplay:10.37,2013-05-08 06:16:00,
2013-05-07 23:21:00,65.1,42.1,29.82,West,270,5.8,5.8,43,0.00,BKN,OVC,0.00,0.0,WeatherDisplay:10.37,2013-05-08 06:21:00,
2013-05-07 23:26:00,65.1,42.7,29.81,WSW,248,3.5,3.5,44,0.00,BKN,OVC,0.00,0.0,WeatherDisplay:10.37,2013-05-08 06:26:00,
2013-05-07 23:31:00,64.8,42.9,29.81,WSW,248,2.3,2.6,45,0.00,BKN,OVC,0.00,0.0,WeatherDisplay:10.37,2013-05-08 06:31:00,
2013-05-07 23:36:00,64.8,42.9,29.81,SW,225,4.6,4.6,45,0.00,BKN,OVC,0.00,0.0,WeatherDisplay:10.37,2013-05-08 06:36:00,
2013-05-07 23:41:00,64.4,42.6,29.81,WSW,248,3.5,3.5,45,0.00,BKN,OVC,0.00,0.0,WeatherDisplay:10.37,2013-05-08 06:41:00,
2013-05-07 23:46:00,64.4,42.6,29.82,SW,225,5.1,5.1,45,0.00,BKN,OVC,0.00,0.0,WeatherDisplay:10.37,2013-05-08 06:46:00,
2013-05-07 23:51:00,64.2,43.0,29.82,WSW,248,3.5,3.5,46,0.00,BKN,OVC,0.00,0.0,WeatherDisplay:10.37,2013-05-08 06:51:00,
2013-05-07 23:56:00,64.2,43.0,29.82,West,270,3.5,3.5,46,0.00,BKN,OVC,0.00,0.0,WeatherDisplay:10.37,2013-05-08 06:56:00,